Reno, NV

4:20 PM PST on January 19, 2017 (GMT -0800)
Reno - Stead

Weather History for KRTS - July, 2013

Change the Weather History Date:

Wednesday, July 31, 2013

  Actual Average (KRNO) Record (KRNO)
Temperature  
Mean Temperature 70 °F -  
Max Temperature 84 °F 92 °F 103 °F (2000)
Min Temperature 57 °F 52 °F 37 °F (1964)
Cooling Degree Days 6    
Growing Degree Days 20 (Base 50)    
Moisture  
Dew Point 32 °F    
Average Humidity 25    
Maximum Humidity 41    
Minimum Humidity 12    
Precipitation  
Precipitation 0.00 in - - ()
Sea Level Pressure  
Sea Level Pressure 30.17 in    
Wind  
Wind Speed 9 mph (West)    
Max Wind Speed 26 mph    
Max Gust Speed 34 mph    
Visibility 10 miles    
Events      
Averages and records for this station are not official NWS values.
T = Trace of Precipitation, MM = Missing Value Source: NWS Daily Summary

Daily Weather History Graph

Daily Weather History Graph

Search for Another Location

Airport or City:

Trip Planner

Search our weather history database for the weather conditions in past years. The results will help you decide how hot, cold, wet, or windy it might be!

Date:

Astronomy

Jul. 31, 2013 Rise Set
Actual Time 5:58 AM PDT 8:13 PM PDT
Civil Twilight 5:27 AM PDT 8:43 PM PDT
Nautical Twilight 4:50 AM PDT 9:20 PM PDT
Astronomical Twilight 4:09 AM PDT 10:00 PM PDT
Moon 12:56 AM PDT (7/31) 3:33 PM PDT (7/31)
Length of Visible Light 15h 15m
Length of Day
14h 15m
Waning Crescent, 31% of the Moon is Illuminated
Jul 31
Waning Crescent
Aug 6
New
Aug 14
First Quarter
Aug 20
Full
Aug 28
Last Quarter

Hourly Weather History & Observations

Time (PDT) Temp. Dew Point Humidity Pressure Visibility Wind Dir Wind Speed Gust Speed Precip Events Conditions
12:15 AM 64.4 °F 32.0 °F 30% 30.23 in 10.0 mi WNW 4.6 mph - N/A   Clear
12:35 AM 64.4 °F 32.0 °F 30% 30.23 in 10.0 mi Calm Calm - N/A   Clear
12:55 AM 64.4 °F 33.8 °F 32% 30.23 in 10.0 mi West 8.1 mph - N/A   Clear
1:15 AM 62.6 °F 33.8 °F 34% 30.23 in 10.0 mi NNW 4.6 mph - N/A   Clear
1:35 AM 64.4 °F 33.8 °F 32% 30.23 in 10.0 mi West 8.1 mph - N/A   Clear
1:55 AM 64.4 °F 35.6 °F 34% 30.22 in 10.0 mi West 10.4 mph - N/A   Clear
2:15 AM 64.4 °F 35.6 °F 34% 30.22 in 10.0 mi WNW 10.4 mph - N/A   Partly Cloudy
2:35 AM 62.6 °F 35.6 °F 37% 30.22 in 10.0 mi WNW 8.1 mph - N/A   Clear
2:55 AM 62.6 °F 35.6 °F 37% 30.22 in 10.0 mi NW 9.2 mph - N/A   Scattered Clouds
3:15 AM 62.6 °F 35.6 °F 37% 30.22 in 10.0 mi NW 10.4 mph - N/A   Mostly Cloudy
3:35 AM 62.6 °F 35.6 °F 37% 30.21 in 10.0 mi WNW 6.9 mph - N/A   Mostly Cloudy
3:55 AM 62.6 °F 35.6 °F 37% 30.21 in 10.0 mi NW 10.4 mph - N/A   Mostly Cloudy
4:10 AM 62.6 °F 33.8 °F 34% 30.21 in 10.0 mi NNW 6.9 mph - N/A   Mostly Cloudy
4:35 AM 59.0 °F 32.0 °F 36% 30.21 in 10.0 mi NW 4.6 mph - N/A   Mostly Cloudy
4:55 AM 59.0 °F 32.0 °F 36% 30.21 in 10.0 mi North 4.6 mph - N/A   Mostly Cloudy
5:15 AM 59.0 °F 32.0 °F 36% 30.21 in 10.0 mi North 8.1 mph - N/A   Mostly Cloudy
5:35 AM 60.8 °F 33.8 °F 36% 30.21 in 10.0 mi North 8.1 mph - N/A   Mostly Cloudy
5:55 AM 62.6 °F 33.8 °F 34% 30.21 in 10.0 mi North 9.2 mph - N/A   Overcast
6:15 AM 62.6 °F 33.8 °F 34% 30.22 in 10.0 mi North 4.6 mph - N/A   Mostly Cloudy
6:35 AM 59.0 °F 33.8 °F 39% 30.22 in 10.0 mi Calm Calm - N/A   Mostly Cloudy
6:55 AM 57.2 °F 33.8 °F 41% 30.22 in 10.0 mi NNW 5.8 mph - N/A   Partly Cloudy
7:15 AM 59.0 °F 33.8 °F 39% 30.22 in 10.0 mi North 4.6 mph - N/A   Clear
7:35 AM 64.4 °F 35.6 °F 34% 30.22 in 10.0 mi North 3.5 mph - N/A   Clear
7:55 AM 66.2 °F 35.6 °F 32% 30.21 in 10.0 mi North 3.5 mph - N/A   Clear
8:15 AM 68.0 °F 35.6 °F 30% 30.21 in 10.0 mi Calm Calm - N/A   Clear
8:35 AM 69.8 °F 35.6 °F 28% 30.21 in 10.0 mi Calm Calm - N/A   Clear
8:55 AM 71.6 °F 35.6 °F 27% 30.21 in 10.0 mi SSW 3.5 mph - N/A   Clear
9:15 AM 71.6 °F 35.6 °F 27% 30.21 in 10.0 mi Calm Calm - N/A   Clear
9:35 AM 73.4 °F 35.6 °F 25% 30.21 in 10.0 mi SSE 4.6 mph - N/A   Clear
9:55 AM 75.2 °F 33.8 °F 22% 30.21 in 10.0 mi SE 4.6 mph - N/A   Clear
10:15 AM 77.0 °F 32.0 °F 19% 30.21 in 10.0 mi SSE 5.8 mph - N/A   Clear
10:35 AM 77.0 °F 33.8 °F 21% 30.20 in 10.0 mi SSW 6.9 mph - N/A   Clear
10:55 AM 80.6 °F 33.8 °F 18% 30.19 in 10.0 mi West 12.7 mph 21.9 mph N/A   Clear
11:15 AM 80.6 °F 35.6 °F 20% 30.19 in 10.0 mi WSW 12.7 mph - N/A   Clear
11:35 AM 80.6 °F 32.0 °F 17% 30.19 in 10.0 mi SSW 9.2 mph 20.7 mph N/A   Clear
11:55 AM 80.6 °F 30.2 °F 16% 30.18 in 10.0 mi SSW 11.5 mph 20.7 mph N/A   Clear
12:15 PM 82.4 °F 32.0 °F 16% 30.17 in 10.0 mi South 10.4 mph 28.8 mph N/A   Clear
12:35 PM 82.4 °F 30.2 °F 15% 30.17 in 10.0 mi WSW 15.0 mph 20.7 mph N/A   Clear
12:55 PM 84.2 °F 26.6 °F 12% 30.16 in 10.0 mi SW 8.1 mph 26.5 mph N/A   Clear
1:15 PM 82.4 °F 32.0 °F 16% 30.16 in 10.0 mi WSW 17.3 mph 21.9 mph N/A   Clear
1:35 PM 84.2 °F 32.0 °F 15% 30.15 in 10.0 mi West 17.3 mph 24.2 mph N/A   Clear
1:55 PM 84.2 °F 32.0 °F 15% 30.15 in 10.0 mi West 13.8 mph 26.5 mph N/A   Clear
2:15 PM 84.2 °F 32.0 °F 15% 30.15 in 10.0 mi West 17.3 mph 26.5 mph N/A   Clear
2:35 PM 84.2 °F 32.0 °F 15% 30.14 in 10.0 mi West 23.0 mph 29.9 mph N/A   Clear
2:55 PM 84.2 °F 32.0 °F 15% 30.13 in 10.0 mi WSW 16.1 mph 32.2 mph N/A   Clear
3:15 PM 84.2 °F 32.0 °F 15% 30.13 in 10.0 mi West 23.0 mph 29.9 mph N/A   Clear
3:35 PM 84.2 °F 32.0 °F 15% 30.12 in 10.0 mi West 20.7 mph 31.1 mph N/A   Clear
3:55 PM 84.2 °F 30.2 °F 14% 30.11 in 10.0 mi WSW 26.5 mph 33.4 mph N/A   Clear
4:15 PM 84.2 °F 30.2 °F 14% 30.11 in 10.0 mi WSW 24.2 mph 34.5 mph N/A   Clear
4:35 PM 84.2 °F 28.4 °F 13% 30.11 in 10.0 mi WSW 23.0 mph 31.1 mph N/A   Clear
4:55 PM 82.4 °F 26.6 °F 13% 30.11 in 10.0 mi WSW 20.7 mph 29.9 mph N/A   Clear
5:15 PM 82.4 °F 24.8 °F 12% 30.11 in 10.0 mi WSW 23.0 mph 32.2 mph N/A   Clear
5:35 PM 82.4 °F 24.8 °F 12% 30.10 in 10.0 mi WSW 25.3 mph 31.1 mph N/A   Clear
5:55 PM 80.6 °F 28.4 °F 15% 30.10 in 10.0 mi WSW 19.6 mph 32.2 mph N/A   Clear
6:15 PM 77.0 °F 26.6 °F 16% 30.10 in 10.0 mi West 13.8 mph 24.2 mph N/A   Clear
6:35 PM 77.0 °F 26.6 °F 16% 30.10 in 10.0 mi West 17.3 mph 24.2 mph N/A   Clear
6:55 PM 77.0 °F 26.6 °F 16% 30.11 in 10.0 mi WSW 13.8 mph 29.9 mph N/A   Clear
7:15 PM 77.0 °F 26.6 °F 16% 30.11 in 10.0 mi WSW 15.0 mph 25.3 mph N/A   Clear
7:35 PM 75.2 °F 26.6 °F 17% 30.11 in 10.0 mi West 13.8 mph 17.3 mph N/A   Clear
7:55 PM 75.2 °F 26.6 °F 17% 30.12 in 10.0 mi West 10.4 mph 27.6 mph N/A   Clear
8:15 PM 73.4 °F 28.4 °F 19% 30.12 in 10.0 mi West 11.5 mph 20.7 mph N/A   Clear
8:35 PM 71.6 °F 32.0 °F 23% 30.12 in 10.0 mi WNW 18.4 mph - N/A   Clear
8:55 PM 69.8 °F 32.0 °F 25% 30.12 in 10.0 mi West 16.1 mph 21.9 mph N/A   Clear
9:15 PM 69.8 °F 32.0 °F 25% 30.12 in 10.0 mi WSW 16.1 mph - N/A   Clear
9:35 PM 68.0 °F 33.8 °F 28% 30.14 in 10.0 mi WSW 11.5 mph 21.9 mph N/A   Clear
9:55 PM 68.0 °F 35.6 °F 30% 30.14 in 10.0 mi West 12.7 mph - N/A   Clear
10:15 PM 66.2 °F 35.6 °F 32% 30.14 in 10.0 mi West 16.1 mph - N/A   Clear
10:35 PM 68.0 °F 35.6 °F 30% 30.13 in 10.0 mi WSW 18.4 mph - N/A   Clear
10:55 PM 66.2 °F 35.6 °F 32% 30.13 in 10.0 mi WSW 15.0 mph - N/A   Clear
11:15 PM 66.2 °F 35.6 °F 32% 30.14 in 10.0 mi WSW 10.4 mph - N/A   Clear
11:35 PM 66.2 °F 35.6 °F 32% 30.14 in 10.0 mi WSW 13.8 mph - N/A   Clear
11:55 PM 66.2 °F 33.8 °F 30% 30.14 in 10.0 mi WSW 15.0 mph - N/A   Clear